Other Public Products
Issued by NWS Grand Forks, ND

Home | Current Version | Previous Version | Text Only | Print | Product List | Glossary Off
Versions: 1 2 3 4 5 6 7 8 9 10 11 12 13 14 15 16 17 18 19 20 21 22 23 24 25 26 27 28 29 30 31 32 33 34 35 36 37 38 39 40 41 42 43 44 45 46 47 48 49 50

000
FPUS83 KFGF 281531
OPUFGF
PRAIRIE TO PINES WEATHER ROUNDUP
NATIONAL WEATHER SERVICE EASTERN NORTH DAKOTA/GRAND FORKS ND
1000 AM CDT TUE JUL 28 2015

 **SATELLITE DATA USED TO AUGMENT SKY COVER AT AUTOMATED STATIONS**
 *****  WEATHER ACROSS EASTERN NORTH DAKOTA  *****

CITY           SKY/WX    TMP DP  RH WIND       PRES   REMARKS
GRAND FORKS    PTSUNNY   75  64  69 SW18G29   29.59R
GRAND FORKS AF PTSUNNY   75  66  72 SW20G26   29.61R
GRAND CITY NWS   N/A     73 N/A N/A S21         N/A
BUXTON         NOT AVBL
DEVILS LAKE    CLOUDY    70  55  60 W20       29.60R
FARGO          PTSUNNY   75  67  76 SW21G31   29.67R
WAHPETON ARPT  PTSUNNY   73  64  73 SW21G30   29.73S
$$

 *****  WEATHER ACROSS CENTRAL AND WESTERN NORTH DAKOTA  *****

CITY           SKY/WX    TMP DP  RH WIND       PRES   REMARKS
JAMESTOWN      MOSUNNY   68  56  65 W21G28    29.71R
BISMARCK       MOSUNNY   67  50  54 W29G35    29.74S
MINOT          PTSUNNY   67  52  58 SW18G32   29.56F
MINOT AFB      CLOUDY    66  55  68 SW21G29   29.53F
GARRISON         N/A     64  51  62 W20G39    29.63S
WILLISTON      CLOUDY    60  57  89 SW20G28   29.52F
DICKINSON      CLOUDY    60  47  61 W30G47    29.71F
HETTINGER      MOSUNNY   62  44  51 W35G49    29.82S
$$

 *****  OTHER OBSERVATIONS NORTHEAST NORTH DAKOTA  *****

CITY           SKY/WX    TMP DP  RH WIND       PRES   REMARKS
WALHALLA       FAIR      73  68  83 MISG      29.55R
LANGDON        PTSUNNY   70  61  73 W20G25    29.59R
CAVALIER       FAIR      75  66  73 SW14G24   29.55R
GRAFTON        PTSUNNY   77  68  73 SW16G26   29.58R
CANDO          PTSUNNY   66  59  77 SW17G26   29.59R
FORT TOTTEN      N/A     68  59  72 SW13      29.95S
ROLLA          PTSUNNY   64  57  77 SW18G28   29.57R
RUGBY          NOT AVBL
 ***** THE ABOVE OBSERVATIONS ARE NON NWS ARE NOT QUALITY
        CONTROLLED AND MAY MIS-REPORT RAIN FOR SNOW...
$$

 *****  OTHER OBSERVATIONS SOUTHEAST NORTH DAKOTA *****

CITY           SKY/WX    TMP DP  RH WIND       PRES   REMARKS
COOPERSTOWN    NOT AVBL
VALLEY CITY    PTSUNNY   68  61  77 W18G26    29.70F
OAKES            N/A     68  63  83 W20       29.76F
GWINNER        PTSUNNY   70  63  78 W21G28    29.75R
SHEYENNE NWR     N/A     73  67  80 W14       29.95S
BUFFALO        NOT AVBL
WYNDMERE         N/A     73  68  83 SW15        N/A
 ***** THE ABOVE OBSERVATIONS ARE NON NWS ARE NOT QUALITY
       CONTROLLED AND MAY MIS-REPORT RAIN FOR SNOW...
$$

  *****  WEATHER ACROSS NORTHERN MINNESOTA  *****

CITY           SKY/WX    TMP DP  RH WIND       PRES   REMARKS
FLAG ISLAND    DRIZZLE   73  70  88 S14G24    29.63F
WARROAD        CLOUDY    73  70  88 SE7       29.65R
ROSEAU         CLOUDY    75  70  83 S13G18    29.63R
HALLOCK        PTSUNNY   77  72  83 S18G26    29.56R
THF RVR FALLS  PTSUNNY   73  68  83 S17G23    29.64F
HALSTAD        NOT AVBL
FOSSTON        PTSUNNY   72  68  88 S14       29.68S
BAUDETTE       LGT RAIN  73  70  90 SE13      29.67S
WASKISH        RAIN      73  72  94 E8        29.67F
CROOKSTON      PTSUNNY   75  70  83 S23       29.63S
$$
  *****  WEATHER ACROSS CENTRAL AND WEST MINNESOTA  *****

CITY           SKY/WX    TMP DP  RH WIND       PRES   REMARKS
BEMIDJI        HVY RAIN  70  69  96 SW8       29.68F
PARK RAPIDS    CLOUDY    72  69  90 S12       29.71S
WADENA         CLOUDY    68  66  94 SW9G16    29.74R
DETROIT LAKES  PTSUNNY   72  66  83 SW12G17   29.71F
MOORHEAD       PTSUNNY   73  68  83 SW18G25   29.69R
FERGUS FALLS   PTSUNNY   75  70  83 SW18      29.73R
ELBOW LAKE     PTSUNNY   73  68  83 SW18G26   29.76R
MORRIS MN      PTSUNNY   75  68  78 W12       29.76F
STAPLES        CLOUDY    72  66  83 SW16G26   29.76R
WHEATON        PTSUNNY   73  64  73 SW18G25   29.77R
$$
  *****  WEATHER ELSEWHERE ACROSS MINNESOTA  *****

CITY           SKY/WX    TMP DP  RH WIND       PRES   REMARKS
DULUTH         CLOUDY    74  68  81 S18G26    29.74F
INTRNTL FALLS  LGT RAIN  72  69  90 SE7       29.72S
ELY            LGT RAIN  73  66  78 SE18      29.76F
CLOQUET        CLOUDY    73  68  83 S8        29.73R
BRAINERD       CLOUDY    73  68  84 S17G29    29.76S
HIBBING        CLOUDY    72  68  87 SE15G21   29.71F
ALEXANDRIA     CLOUDY    72  67  84 SW13      29.79F
SAINT CLOUD    CLOUDY    75  71  87 S12       29.77R
MINNEAPOLIS    CLOUDY    73  69  87 SE13G22   29.80R
$$

  *****  WEATHER ACROSS SOUTH DAKOTA  *****

CITY           SKY/WX    TMP DP  RH WIND       PRES   REMARKS
SIOUX FALLS    MOSUNNY   76  68  76 SW9       29.80F
BROOKINGS      PTSUNNY   75  68  78 SW17G23   29.83S
WATERTOWN      CLOUDY    72  67  84 SW16      29.82S
HURON          MOSUNNY   70  61  73 NW18      29.86R
SISSETON         N/A     75  67  76 W17G24    29.76R
ABERDEEN       MOSUNNY   69  56  62 W17G26    29.81S
MITCHELL       CLOUDY    72  68  87 W8        29.87R
PIERRE         SUNNY     68  51  54 W23       29.90R
MOBRIDGE       SUNNY     68  52  56 W21G31    29.81R
RAPID CITY     SUNNY     66  43  43 W20       30.00R
$$

  *****  SOME WEATHER IN NEARBY STATES *****

CITY           SKY/WX    TMP DP  RH WIND       PRES   REMARKS
GLASGOW MT     LGT RAIN  57  53  86 W31G41    29.70R
GREAT FALLS MT PTSUNNY   58  45  62 SW15      30.09R
CHEYENNE WY    SUNNY     64  34  32 NW12G21   30.19S
SCOTTSBLUFF NE SUNNY     65  50  58 NW6       30.09R
OMAHA NE       CLOUDY    73  70  90 E15G24    29.86F
DES MOINES IA  CLOUDY    76  71  85 N7        29.94F
DAVENPORT IA   TSTM      74  73  97 VRB3      30.02R VSB 1/4
CHICAGO IL     MOSUNNY   83  67  58 SE12      29.98S
EAU CLAIRE WI  RAIN      70  67  90 S12       29.95S FOG
LA CROSSE WI   RAIN      71  69  93 CALM      29.97S FOG
$$

  *****  SOME NATIONAL WEATHER *****

CITY           SKY/WX    TMP DP  RH WIND       PRES   REMARKS
LA GUARDIA NY  PTSUNNY   87  64  46 N3        29.98F
RALEIGH NC     PTSUNNY   85  71  63 SW5       30.04R HX  90
ATLANTA GA     MOSUNNY   87  73  62 CALM      30.04F HX  94
NEW ORLEANS LA MOSUNNY   89  72  56 NW6       30.03S HX  96
OKLAHOMA CITY  SUNNY     86  70  58 S17G25    29.94S HX  90
ALBUQUERQUE NM MOSUNNY   76  52  43 S8        30.17R
SALT LAKE CITY SUNNY     62  35  36 CALM      30.27R
LOS ANGELES CA PTSUNNY   69  61  75 E3        29.91R
BOISE ID       SUNNY     61  38  42 VRB3      30.26R
SEATTLE WA     MOSUNNY   63  53  70 VRB5      30.29S
$$

*** WEATHER ACROSS MANITOBA...SASKATCHEWAN AND ONTARIO ***
                ***ONTARIO***

CITY           SKY/WX    TMP DP  RH WIND       PRES   REMARKS
GERALDTON      CLOUDY    81  66  61 S7        29.93F
THUNDER BAY    CLOUDY    66  61  82 E14       29.90F
SIOUX LOOKOUT  CLOUDY    75  66  73 S8G17     29.77F
TORONTO        SUNNY     84  54  34 VRB2      30.03S
BIG TROUT LK   SUNNY     79  61  53 SE5       29.80F
PICKLE LAKE    PTSUNNY   81  63  54 S9        29.82F
DRYDEN         PTSUNNY   75  66  73 S16G23    29.74S
KENORA         LGT RAIN  73  68  83 S10G17    29.70R
$$
                *** MANITOBA***

CITY           SKY/WX    TMP DP  RH WIND       PRES   REMARKS
BRANDON        PTSUNNY   68  61  77 SW20G28   29.47S
DAUPHIN        CLOUDY    72  68  88 SE6       29.39F
ISLAND LAKE    CLOUDY    75  61  60 E5        29.67F
PILOT MOUND      N/A     66  59  77 SW17G23     N/A
THE PAS        LGT RAIN  63  59  88 NE9       29.55F
THOMPSON       CLOUDY    66  59  77 NE8       29.71F
WINNIPEG       CLOUDY    73  72  94 S17       29.52S
LYNN LAKE      SUNNY     68  54  60 N6        29.74F
CHURCHILL      PTSUNNY   52  50  93 NE6       29.77S
GILLAM         PTSUNNY   73  61  64 NE6       29.75F
$$
                ***SASKATCHEWAN***

CITY           SKY/WX    TMP DP  RH WIND       PRES   REMARKS
ESTEVAN        DRIZZLE   59  57  94 S18G29    29.42F
KINDERSLEY     CLOUDY    57  50  77 NW13G20   29.77F
LLOYDMINSTER   PTSUNNY   61  48  63 NW12G20   29.86S
PRINCE ALBERT  LGT RAIN  57  55  94 N15G23    29.64F FOG
REGINA         CLOUDY    63  63 100 SE7       29.27F FOG


USA.gov is the U.S. government's official web portal to all federal, state and local government web resources and services.